Tracking 19709 objects as of 17-Jun-2019
HD Live streaming from Space Station
objects crossing your sky now

DELTA 1 DEB

Track DELTA 1 DEB now!
10-day predictions


NORAD ID: 7136
Int'l Code: 1973-086DA
Perigee: 1,421.4 km
Apogee: 1,499.5 km
Inclination: 101.5 °
Period: 115.0 minutes
Semi major axis: 7831 km
RCS: 0.0415 m2 (small)
Launch date: November 6, 1973
Source: United States (US)
Launch site: AIR FORCE WESTERN TEST RANGE (AFWTR)

Note: This is SATELLITE DEBRIS
aabbcc
Your satellite tracking list
Your tracking list is empty




NASA's NSSDC Master Catalog

Two Line Element Set (TLE):
1  7136U 73086DA  19167.55271729  .00000111  00000-0  97139-3 0  9998
2  7136 101.4831 188.6499 0049879  32.4496  96.2127 12.52679188 81530
Source of the keplerian elements: AFSPC